STARLINK-11502, 62474

Orbit data source: Space-Track

STARLINK-11502, 62474 is a payload satellite owned by SpaceX/Seattle (US) in LEO that was launched on Tue, 31 Dec 2024 UTC via an FALCON 9 launch vehicle from the Air Force Eastern Test Range (AFETR). Payload-class satellites include a variety of spacecraft equipped with specific instruments for various scientific and technological missions. These include communications satellites like Starlink; space stations such as the ISS; scientific satellites like the Hubble; Earth observation satellites from companies like Planet Labs, Umbra, and HawkEye 360; GPS; miniature CubeSats for education and research; and military/defense satellites.

Loading next visibility...
Identifier
62474, 2024-254N
Orbit
LEO
Country
Flag of USUS
Related business
Manufacturer
SpaceX/Seattle
Mission
Operational Commercial Communications
Bus & Motor
STARLINK V2MD, Unknown motor
Mass
960 kg wet, ~910 kg dry
Launch date (UTC)
2024-12-31 (1 year ago)
Launch vehicle
FALCON 9
Launch site
Air Force Eastern Test Range (AFETR)
Object type
Payload
Rocket body
Debris
Shape & HBR
Box + 2 Pan, 18.1 m
Radar Cross Section
36.964 m², Large (>1 m²)

Expand to show TLE details & history
Last TLE update: 18 hours ago

TLE from 18 hours ago
0 STARLINK-11502
1 62474U 24254N   26061.96110755  .00126144  00000-0  97094-3 0  9999
2 62474  42.9984 263.4784 0002134 255.3745 104.6886 15.70858070 68341
Epoch: 2026-03-02T23:03Z
TLE epoch observation values (Epoch: 2026-03-02T23:03:59.692Z)
Latitude
-0.00002°
Longitude
116.73265°
Altitude
356.579 km
Speed
7.697 km/s
True Right ascension
17h 33m 54s
True Declination
0° 00' 00"
Sunlit
Object was in daylight at epoch
Visualization orbit readout
Latitude
Unknown
Longitude
Unknown
Altitude
Unknown
Speed
Unknown
Apparent Right ascension
Unknown
Apparent Declination
Unknown
Sunlit
N/A
Visualization observer readout
Local Sidereal Time
21:09:55
Azimuth
Unknown
Elevation
Unknown
Doppler factor
Unknown
Orbital elements
Apogee altitude
359.863 km
Perigee altitude
356.988 km
Semi-major axis
6,736.562 km
Eccentricity
0.00021
Inclination
42.9984°
RAAN
263.4784°
Arg. of periapsis
255.3745°
True anomaly
104.71225°
Mean anomaly
104.6886°
Eccentric anomaly
104.70043°
Mean motion
3.92542 °/min
Orbital period
91.71 mins
BSTAR
0.00097094
Loading maneuver chart data...
Computing Atmospheric mass density...
Loading historical data...
Loading historical data...
Loading historical data...
Loading historical data...
Loading historical data...
Loading historical data...
Loading historical data...

Documentation

Showing up to 5 results
|